Weather in Zashizhem'ye

Russia / Mari El Republic     56°57′55″N   49°22′50″E
temp.,
°C
wind,
m/s
gust,
m/s
humid.,
%
clouds,
%
prec.,
mm/h
press.,
hPa
HPBL,
m
28 september, tue
tue2800:00+1ne410875 0.0 1025246
03:000ne410895 0.0 1027246
06:00−1ne41093100 0.0 1028201
09:00+4ne58695 0.0 1028538
12:00+7ne5752100 0.0 10291110
15:00+8ne565037 0.0 10291260
18:00+4nne3670100 0.0 1030110
21:00+3n3672100 0.0 1030120
29 september, wed
wed2900:00+2nne34785 0.0 103160
03:00+1n338426 0.0 103138
06:000n33886 0.0 103246
09:00+5nne346340 0.0 1032418
12:00+8nne345060 0.0 10311026
15:00+9nne455153 0.0 10311338
18:00+5nne227129 0.0 103114
21:00+5n2375100 0.0 103174
30 september, thu
thu3000:00+5nnw2285100 0.0 103143
03:00+5nw238694 0.0 103198
06:00+5wnw3587100 0.0 1031164
09:00+8nw3577100 0.0 1031458
12:00+10wnw456595 0.0 1030908
15:00+10wnw576590 0.0 1029715
18:00+9wnw4974100 0.0 1029398
21:00+9wnw378073 0.0 1028228
1 october, fri
fri100:00+6nnw339211 0.0 102950
03:00+6nw349053 0.0 102997
06:00+5nw34955 0.0 103069
09:00+10nnw347612 0.0 1030345
12:00+13nw346574 0.0 1029752
15:00+13nw456286 0.0 1029917
18:00+9nnw347877 0.0 103065
21:00+7nnw338720 0.0 103032
2 october, sat
sat200:00+6nnw22915 0.0 103121
03:00+5wnw229293 0.0 103118
06:00+5wnw22935 0.0 103127
09:00+10nw23755 0.0 1032315
12:00+13nw336324 0.0 1031884
15:00+14nw3361100 0.0 10311187
18:00+12wnw3366100 0.0 103261
21:00+13wnw3363100 0.0 103242